Location: ??????
(56.0120°N, 39.1740°E)
Time: 11:41:47
(UTC+00:00)

Cosmos 2228 - Pass Details

Date: 14 April 2026
Orbit: 561 x 588 km, 82.5° (Epoch: 10 May)

Event Time Altitude Azimuth Distance (km) Brightness Sun altitude
Exits shadow 22:52:06 35° 278° (W) 947 3.8 -21.8°
Maximum altitude 22:52:29 36° 291° (WNW) 932 3.9 -21.8°
Drops below altitude 10° 22:56:24 10° 359° (N) 1,909 6.5 -21.5°
Sets 22:58:45 0° 8° (N) 2,808 7.7 -21.4°
